Regional Weather Roundup
Issued by NWS Kansas City/Pleasant Hill, MO

Home | Current Version | Previous Version | Text Only | Print | Product List | Glossary On
Versions: 1 2 3 4 5 6 7 8 9 10 11 12 13 14 15 16 17 18 19 20 21 22 23 24 25 26 27 28 29 30 31 32 33 34 35 36 37 38 39 40 41 42 43 44 45 46 47 48 49 50
000
ASUS43 KEAX 310705
RWREAX

WEATHER ROUNDUP FOR EASTERN KANSAS AND NORTHWEST MISSOURI
NATIONAL WEATHER SERVICE KANSAS CITY/PLEASANT HILL MO
200 AM CDT SAT JUL 31 2021

KSZ040-057-103>105-MOZ028-029-037-043-310800-
...KANSAS CITY METROPOLITAN AREA...

CITY           SKY/WX    TMP DP  RH WIND       PRES   REMARKS
K.C. INTL      CLOUDY    80  75  84 NE13      30.01S
K.C. DOWNTOWN  CLOUDY    82  73  74 E6        29.99F
LEES SUMMIT    MOCLDY    77  75  93 SE9       30.01F
OLATHE - IXD   MOCLDY    78  69  73 SE6       30.01F
OLATHE - OJC   MOCLDY    79  72  79 S6        30.01F
LAWRENCE       MOCLDY    76  73  91 SE5       29.97F

$$

MOZ001>008-011>017-020>025-030>033-038>040-044>046-053-054-310800-
...NORTHERN AND CENTRAL MISSOURI...

CITY           SKY/WX    TMP DP  RH WIND       PRES   REMARKS
ST. JOSEPH     CLOUDY    79  74  84 SE13      29.98F
MOSBY          CLOUDY    79  72  78 SE5       30.01F
HARRISONVILLE  MOCLDY    77  73  88 SE3       30.04F
WHITEMAN AFB   MOCLDY    75  75 100 CALM      29.99S
CLINTON        PTCLDY    79  79 100 CALM      30.02S
SEDALIA        MOCLDY    77  74  90 SE8       30.04S
MARSHALL       CLOUDY    73  72  94 E5        30.04F
CHILLICOTHE      N/A     74  74 100 NW5       30.01F
MOBERLY        CLOUDY    72  64  78 SE6       30.05F
KIRKSVILLE     LGT RAIN  70  68  93 SE13      30.02F

$$

MOZ041-047>049-056>058-063>065-088>090-097-310800-
...EASTERN AND SOUTHERN MISSOURI...

CITY           SKY/WX    TMP DP  RH WIND       PRES   REMARKS
ST. LOUIS INTL MOCLDY    74  66  76 E8        30.07F
SPIRIT OF STL  MOCLDY    72  67  84 CALM      30.05F
COLUMBIA       MOCLDY    74  70  87 E7        30.05F
JEFFERSON CITY PTCLDY    77  69  76 E5        30.03F
MEXICO         CLOUDY    70  66  88 SE5       30.06F
HANNIBAL       CLOUDY    72  63  73 SE6       30.06F
ROLLA          PTCLDY    75  72  90 SE8       30.07F
LEBANON        CLEAR     75  73  94 S6        30.07F
OSAGE BEACH    CLEAR     77  75  93 SE5       30.05F
SPRINGFIELD    CLEAR     74  70  87 S6        30.05F
BRANSON        CLEAR     77  70  78 CALM      30.09F
JOPLIN         CLEAR     78  74  87 S6        30.05F
WEST PLAINS    CLEAR     75  73  93 NE3       30.10S
SIKESTON       PTCLDY    75  72  88 NE3       30.05F

$$

IAZ060-094-KSZ022-034>040-054-083-096-NEZ052-066-093-310800-
...KANSAS...SOUTHEAST NEBRASKA AND IOWA...

CITY           SKY/WX    TMP DP  RH WIND       PRES   REMARKS
TOPEKA         MOCLDY    81  71  71 S6        29.96F
MANHATTAN      PTCLDY    78  69  73 SW3       29.98F
EMPORIA        CLEAR     81  74  79 S10       30.00F
OTTAWA         FAIR      77  73  88 SE6       29.99S
CHANUTE        CLEAR     80  74  81 S7        30.02F
SALINA         CLEAR     80  70  71 S7        29.98F
WICHITA        CLEAR     77  71  82 S7        30.02S
OMAHA          TSTM      71  68  90 NW24G36   30.09R
LINCOLN        CLOUDY    73  70  90 NE15      30.02S
FALLS CITY     CLOUDY    76  73  91 SE9       29.97F
LAMONI         CLOUDY    72  70  93 E3        30.01F FOG
DES MOINES     CLOUDY    68  67  96 E7        30.03F

$$




USA.gov is the U.S. government's official web portal to all federal, state and local government web resources and services.